Regional Weather Roundup
Issued by NWS

Home | Current Version | Previous Version | Text Only | Print | Product List | Glossary Off
Versions: 1 2 3 4 5 6 7 8 9 10 11 12 13 14 15 16 17 18 19 20 21 22 23 24 25 26 27 28

000
ASUS45 KSLC 110110
RWRUT

UTAH REGIONAL WEATHER ROUNDUP
NATIONAL WEATHER SERVICE SALT LAKE CITY UT
600 PM MST SAT DEC 10 2016

UTZ001>011-023>025-110200-

NORTHERN UTAH

CITY           SKY/WX    TMP DP  RH WIND       PRES   REMARKS
BRIGHAM CITY     N/A     40  36  86 S3        29.89S
HILL AFB       LGT RAIN  37  36  93 E6        29.89S WCI  33
LOGAN          CLOUDY    40  36  86 S7        29.86S
OGDEN          LGT RAIN  39  38  96 SE5       29.89R
SALT LAKE CITY RAIN      40  37  89 N20       29.88S WCI  30
WENDOVER       CLOUDY    41  36  81 W9        29.90R
HEBER CITY     MIX PCPN  36  34  93 CALM      29.85F

$$

UTZ011>015-024>027-110200-

CENTRAL/NORTHEAST UTAH

CITY           SKY/WX    TMP DP  RH WIND       PRES   REMARKS
PROVO AIRPORT  LGT RAIN  44  39  82 NE6       29.85F
MOAB/CANYONLAN MOCLDY    32  17  54 NW6       29.96S WCI  26
DELTA          CLOUDY    50  34  53 SW24G33   29.84F
PRICE          MOCLDY    28  16  60 CALM      29.95F
ROOSEVELT      CLOUDY    30  23  74 CALM      29.92F
VERNAL         CLOUDY    31  20  63 CALM      29.90F

$$

UTZ013>016-019>022-027-110200-

SOUTHERN UTAH

CITY           SKY/WX    TMP DP  RH WIND       PRES   REMARKS
BRYCE CANYON   MOCLDY    34  29  82 CALM      30.04F
CEDAR CITY     CLOUDY    45  34  65 SW16G23   29.99S
MILFORD        CLOUDY    50  35  56 S21       29.94F
ST GEORGE      CLOUDY    54  34  47 CALM      30.05R
HANKSVILLE     MOCLDY    34  16  47 CALM      29.98S
BLANDING       PTCLDY    38  26  62 CALM      30.09F

$$

REGIONAL REPORTS     COLORADO/ARIZONA

CITY           SKY/WX    TMP DP  RH WIND       PRES   REMARKS
CRAIG, CO      LGT RAIN  41  28  60 W10       29.87F
GRAND JUNCTION CLOUDY    32  25  75 CALM      29.96F
RIFLE, CO      CLOUDY    31  26  82 CALM      29.96F
MONTROSE, CO   CLOUDY    36  25  64 SE5       29.99R WCI  32
CORTEZ, CO     CLOUDY    33  26  75 CALM      30.03F
COLORADO CITY    N/A     45  36  70 NW3       30.09S
PAGE, AZ       PTCLDY    44  25  47 CALM      30.02S
GRAND CANYON   MOCLDY    43  36  76 W5        30.12R
KINGMAN, AZ    CLOUDY    54  36  50 SW3       30.05F
FLAGSTAFF, AZ  CLOUDY    43  31  62 W3        30.14F

$$

REGIONAL REPORTS    NEVADA/IDAHO/WYOMING

CITY           SKY/WX    TMP DP  RH WIND       PRES   REMARKS
LAS VEGAS, NV  CLOUDY    56  21  25 CALM      29.99F
ELY, NY        CLOUDY    46  31  55 S12       29.93R
ELKO, NV       LGT RAIN  35  33  92 SW6       29.94R WCI  30
POCATELLO, ID  CLOUDY    37  33  85 SW16      29.82R WCI  28
BURLEY, ID     LGT RAIN  38  35  89 SW13      29.84S WCI  30
FORT BRIDGER,  LGT SNOW  34  34 100 W17G23    29.87R WCI  24
EVANSTON, WY   LGT SNOW  32  30  92 SW10      29.84F VSB 3/4 WCI  24
ROCK SPRINGS,  CLOUDY    34  29  82 W17       29.81S WCI  23
KEMMERER, WY   FLURRIES  32  32 100 W17G26    29.82R WCI  21

$$




USA.gov is the U.S. government's official web portal to all federal, state and local government web resources and services.